Location: Bremen
(53.0793°N, 8.8017°E)
Time: 17:50:58
(UTC+02:00)

Transit 2A Rocket - Pass Details

Date: 26 June 2024
Orbit: 582 x 910 km, 66.7° (Epoch: 20 July)

Event Time Altitude Azimuth Distance (km) Brightness Sun altitude
Rises 00:19:11 0° 282° (WNW) 3,308 8.7 -12.1°
Reaches altitude 10° 00:22:03 10° 297° (WNW) 2,434 8.2 -12.2°
Maximum altitude 00:26:31 23° 349° (NNW) 1,757 7.9 -12.4°
Drops below altitude 10° 00:31:12 10° 40° (NE) 2,568 8.2 -12.6°
Sets 00:34:20 0° 55° (NE) 3,535 8.7 -12.7°
